When you browse on this site, cookies collect data to enhance your experience and personalize the content and advertising you see.
Visit our Privacy Policy to learn more. By continuing to use the site, you agree to this use of cookies and data.
  • In Portugal
  • List of Countries
  • For 7 days
  • Water Temperature
  • Satellite Maps
  • Weather Map
  • Weather Widgets
  • user-avatar
    Login

    Hourly Weather Pasternik

    Today, 19 December, Wednesday

    Time Temperature Precipitation Wind Pressure Humidity
    00:00 -1°C° 0 mm 3 mps 755 mmHg 91%
    01:00 -1°C° 0 mm 3 mps 755 mmHg 91%
    02:00 -1°C° 0 mm 3 mps 754 mmHg 90%
    03:00 -1°C° 0 mm 3 mps 754 mmHg 90%
    04:00 -2°C° 0 mm 3 mps 754 mmHg 90%
    05:00 -2°C° 0 mm 3 mps 753 mmHg 89%
    06:00 -3°C° 0 mm 4 mps 753 mmHg 88%
    07:00 -3°C° 0 mm 4 mps 753 mmHg 88%
    08:00 -2°C° 0 mm 4 mps 753 mmHg 84%
    09:00 -1°C° 0 mm 4 mps 753 mmHg 81%
    10:00 -1°C° 0 mm 4 mps 753 mmHg 77%
    11:00 0°C° 0 mm 4 mps 752 mmHg 75%
    12:00 0°C° 0 mm 4 mps 752 mmHg 73%
    13:00 +1°C° 0 mm 4 mps 752 mmHg 71%
    14:00 0°C° 0 mm 4 mps 751 mmHg 73%
    15:00 0°C° 0 mm 4 mps 751 mmHg 75%
    16:00 0°C° 0 mm 3 mps 751 mmHg 77%
    17:00 0°C° 0 mm 3 mps 751 mmHg 77%
    18:00 0°C° 0 mm 3 mps 751 mmHg 77%
    19:00 0°C° 0 mm 3 mps 750 mmHg 78%
    20:00 0°C° 0.2 mm 3 mps 750 mmHg 79%
    21:00 0°C° 0.2 mm 3 mps 750 mmHg 80%
    22:00 0°C° 0.2 mm 3 mps 750 mmHg 81%
    23:00 0°C° 0.3 mm 3 mps 750 mmHg 82%

    Tomorrow, 20 December, Thursday

    Time Temperature Precipitation Wind Pressure Humidity
    00:00 0°C° 0.3 mm 3 mps 750 mmHg 83%
    01:00 +1°C° 0.3 mm 2 mps 750 mmHg 84%
    02:00 +1°C° 0.3 mm 2 mps 750 mmHg 85%
    03:00 +1°C° 0.3 mm 2 mps 750 mmHg 86%
    04:00 +1°C° 0.3 mm 2 mps 750 mmHg 87%
    05:00 -1°C° 0.4 mm 2 mps 750 mmHg 87%
    06:00 -1°C° 0.4 mm 2 mps 750 mmHg 88%
    07:00 -1°C° 0.4 mm 2 mps 750 mmHg 89%
    08:00 -1°C° 0.2 mm 2 mps 750 mmHg 89%
    09:00 0°C° 0.2 mm 3 mps 750 mmHg 88%
    10:00 0°C° 0.2 mm 3 mps 750 mmHg 88%
    11:00 0°C° 0.3 mm 3 mps 750 mmHg 88%
    12:00 0°C° 0.3 mm 3 mps 750 mmHg 88%
    13:00 +1°C° 0.3 mm 3 mps 749 mmHg 88%
    14:00 +1°C° 0.1 mm 3 mps 749 mmHg 88%
    15:00 +1°C° 0.1 mm 3 mps 749 mmHg 89%
    16:00 +1°C° 0.1 mm 3 mps 749 mmHg 89%
    17:00 +1°C° 0.1 mm 3 mps 749 mmHg 89%
    18:00 +1°C° 0.1 mm 3 mps 749 mmHg 89%
    19:00 0°C° 0.1 mm 4 mps 750 mmHg 88%
    20:00 0°C° 0 mm 4 mps 750 mmHg 88%
    21:00 0°C° 0 mm 4 mps 750 mmHg 88%
    22:00 0°C° 0 mm 4 mps 750 mmHg 89%
    23:00 0°C° 0 mm 4 mps 750 mmHg 89%

    Day after tomorrow, 21 December, Friday

    Time Temperature Precipitation Wind Pressure Humidity
    00:00 0°C° 0 mm 4 mps 749 mmHg 89%
    01:00 0°C° 0 mm 4 mps 749 mmHg 89%
    02:00 0°C° 0 mm 4 mps 749 mmHg 89%
    03:00 +1°C° 0 mm 4 mps 749 mmHg 88%
    04:00 +1°C° 0 mm 4 mps 748 mmHg 87%
    05:00 +1°C° 0.1 mm 4 mps 748 mmHg 87%
    06:00 +1°C° 0.1 mm 4 mps 748 mmHg 87%
    07:00 +1°C° 0.1 mm 4 mps 748 mmHg 87%
    08:00 +1°C° 0 mm 4 mps 747 mmHg 87%
    09:00 +3°C° 0 mm 4 mps 747 mmHg 86%
    10:00 +2°C° 0 mm 5 mps 747 mmHg 86%
    11:00 +2°C° 0.1 mm 5 mps 746 mmHg 85%
    12:00 +2°C° 0.1 mm 5 mps 745 mmHg 85%
    13:00 +3°C° 0.1 mm 5 mps 744 mmHg 85%
    14:00 +3°C° 0.6 mm 5 mps 743 mmHg 85%
    15:00 +2°C° 0.6 mm 5 mps 742 mmHg 84%
    16:00 +2°C° 0.6 mm 6 mps 741 mmHg 84%
    17:00 +3°C° 1 mm 6 mps 740 mmHg 84%
    18:00 +4°C° 1 mm 6 mps 740 mmHg 85%
    19:00 +5°C° 1 mm 7 mps 739 mmHg 85%
    20:00 +5°C° 0.1 mm 7 mps 739 mmHg 83%
    21:00 +5°C° 0.1 mm 7 mps 739 mmHg 82%
    22:00 +6°C° 0.1 mm 7 mps 739 mmHg 80%
    23:00 +5°C° 0 mm 7 mps 740 mmHg 80%

    22 December, Saturday

    Time Temperature Precipitation Wind Pressure Humidity
    00:00 +5°C° 0 mm 7 mps 740 mmHg 80%
    01:00 +5°C° 0 mm 7 mps 740 mmHg 80%
    02:00 +5°C° 0 mm 6 mps 741 mmHg 80%
    03:00 +4°C° 0 mm 6 mps 741 mmHg 81%
    04:00 +4°C° 0 mm 6 mps 741 mmHg 81%
    05:00 +4°C° 0 mm 6 mps 741 mmHg 81%
    06:00 +5°C° 0 mm 5 mps 741 mmHg 81%
    07:00 +5°C° 0 mm 5 mps 740 mmHg 81%
    08:00 +6°C° 0 mm 5 mps 740 mmHg 82%
    09:00 +6°C° 0 mm 5 mps 740 mmHg 83%
    10:00 +6°C° 0 mm 5 mps 739 mmHg 84%
    11:00 +6°C° 1.2 mm 5 mps 739 mmHg 85%
    12:00 +7°C° 1.2 mm 6 mps 738 mmHg 85%
    13:00 +7°C° 1.2 mm 6 mps 738 mmHg 85%
    14:00 +7°C° 0.3 mm 6 mps 739 mmHg 84%
    15:00 +7°C° 0.3 mm 6 mps 740 mmHg 84%
    16:00 +6°C° 0.3 mm 7 mps 740 mmHg 83%
    17:00 +5°C° 0.1 mm 7 mps 741 mmHg 82%
    18:00 +5°C° 0.1 mm 7 mps 741 mmHg 81%
    19:00 +5°C° 0.1 mm 7 mps 742 mmHg 80%
    20:00 +5°C° 0.2 mm 7 mps 742 mmHg 80%
    21:00 +5°C° 0.2 mm 6 mps 743 mmHg 80%
    22:00 +5°C° 0.2 mm 6 mps 743 mmHg 79%
    23:00 +5°C° 0.4 mm 7 mps 743 mmHg 80%

    23 December, Sunday

    Time Temperature Precipitation Wind Pressure Humidity
    00:00 +5°C° 0.4 mm 7 mps 744 mmHg 81%
    01:00 +5°C° 0.4 mm 8 mps 744 mmHg 83%
    02:00 +5°C° 0.2 mm 7 mps 745 mmHg 82%
    03:00 +4°C° 0.2 mm 7 mps 746 mmHg 82%
    04:00 +4°C° 0.2 mm 6 mps 746 mmHg 82%
    05:00 +4°C° 0.1 mm 6 mps 746 mmHg 82%
    06:00 +4°C° 0.1 mm 6 mps 747 mmHg 83%
    07:00 +4°C° 0.1 mm 6 mps 747 mmHg 83%
    08:00 +4°C° 0.1 mm 6 mps 747 mmHg 82%
    09:00 +4°C° 0.1 mm 6 mps 748 mmHg 82%
    10:00 +4°C° 0.1 mm 6 mps 748 mmHg 81%
    11:00 +4°C° 0.1 mm 6 mps 748 mmHg 79%
    12:00 +4°C° 0.1 mm 6 mps 748 mmHg 78%
    13:00 +5°C° 0.1 mm 6 mps 748 mmHg 77%
    14:00 +4°C° 0.2 mm 6 mps 748 mmHg 78%
    15:00 +4°C° 0.2 mm 6 mps 748 mmHg 79%
    16:00 +4°C° 0.2 mm 6 mps 749 mmHg 80%
    17:00 +4°C° 0.2 mm 6 mps 749 mmHg 80%
    18:00 +4°C° 0.2 mm 7 mps 749 mmHg 80%
    19:00 +4°C° 0.2 mm 7 mps 749 mmHg 80%
    20:00 +3°C° 0.1 mm 7 mps 750 mmHg 81%
    21:00 +3°C° 0.1 mm 7 mps 750 mmHg 81%
    22:00 +3°C° 0.1 mm 7 mps 751 mmHg 82%
    23:00 +3°C° 0.2 mm 6 mps 751 mmHg 83%

    24 December, Monday

    Time Temperature Precipitation Wind Pressure Humidity
    00:00 +3°C° 0.2 mm 6 mps 751 mmHg 84%
    01:00 +3°C° 0.2 mm 5 mps 752 mmHg 86%
    02:00 +2°C° 0.1 mm 5 mps 752 mmHg 87%
    03:00 +3°C° 0.1 mm 4 mps 752 mmHg 88%
    04:00 +3°C° 0.1 mm 3 mps 753 mmHg 89%
    05:00 +3°C° 0.1 mm 3 mps 753 mmHg 90%
    06:00 +3°C° 0.1 mm 3 mps 753 mmHg 91%
    07:00 +3°C° 0.1 mm 3 mps 754 mmHg 91%
    08:00 +3°C° 0.2 mm 3 mps 754 mmHg 90%
    09:00 +3°C° 0.2 mm 3 mps 754 mmHg 88%
    10:00 +3°C° 0.2 mm 4 mps 755 mmHg 87%
    11:00 +4°C° 0.1 mm 4 mps 755 mmHg 85%
    12:00 +4°C° 0.1 mm 4 mps 755 mmHg 83%
    13:00 +4°C° 0.1 mm 4 mps 755 mmHg 81%
    14:00 +4°C° 0.1 mm 4 mps 755 mmHg 83%
    15:00 +4°C° 0.1 mm 4 mps 756 mmHg 85%
    16:00 +3°C° 0.1 mm 3 mps 756 mmHg 86%
    17:00 +3°C° 0.1 mm 3 mps 756 mmHg 87%
    18:00 +3°C° 0.1 mm 3 mps 756 mmHg 87%
    19:00 +3°C° 0.1 mm 3 mps 756 mmHg 88%
    20:00 +3°C° 0 mm 3 mps 756 mmHg 88%
    21:00 +3°C° 0 mm 3 mps 757 mmHg 89%
    22:00 +3°C° 0 mm 2 mps 757 mmHg 90%
    23:00 +3°C° 0 mm 2 mps 757 mmHg 91%
    Show more